CZ-3B R/B, 63525

Orbit data source: Space-Track

CZ-3B R/B, 63525 is space debris in HEO originally from a launch on Thu, 10 Apr 2025 UTC launched from the Xichang Space Center, China (XSC). Debris objects in space refer to the collection of defunct objects orbiting the Earth. Examples of debris include non-operational satellites, rocket bodies, and fragments generated from explosions, collisions, or faulty payload assembly.

Loading next visibility...
Identifier
63525, 2025-073B
Orbit
HEO
Last TLE update
1 month ago
Origin
Manufacturer
CALT
Mission
Spacecraft
Bus & Motor
CZ-3A STAGE 3, Unknown motor
Mass
~2,800 kg wet, ~2,800 kg dry
Launch date (UTC)
2025-04-10 (3 months ago)
Launch vehicle
Unknown
Launch site
Xichang Space Center, China (XSC)
Object type
Payload
Rocket body
Debris
Shape & HBR
Cyl + 1 Nozzle, 12.38 m
Radar Cross Section
32.704 m², Large (>1 m²)

Expand to show TLE details & history

TLE from 1 month ago
0 CZ-3B R/B
1 63525U 25073B   25161.28637657  .00224580  11431-5  17543-2 0  9995
2 63525  19.3001  64.0721 7257790 224.2932  47.0836  2.36552571  1384
Epoch: 2025-06-10T06:52Z
TLE epoch observation values (Epoch: 2025-06-10T06:52:22.935Z)
Latitude
-0°
Longitude
62.08502°
Altitude
17,073.475 km
Speed
4.152 km/s
True Right ascension
04h 16m 15s
True Declination
0° 00' 00"
Sunlit
Object was in daylight at epoch
Visualization orbit readout
Latitude
9.56214°
Longitude
77.31134°
Altitude
19,181.912 km
Speed
3.708 km/s
Apparent Right ascension
06h 01m 54s
Apparent Declination
0° 23' 40"
Sunlit
Object is in daylight
Visualization observer readout
Local Sidereal Time
00:16:06
Azimuth
91.976° ESE
Elevation
2.974°
Doppler factor
1
Orbital elements
Apogee altitude
34,691.634 km
Perigee altitude
147.724 km
Semi-major axis
23,797.816 km
Eccentricity
0.72578
Inclination
19.3001°
RAAN
64.0721°
Arg. of periapsis
224.2932°
True anomaly
Unknown
Mean anomaly
47.0836°
Eccentric anomaly
Unknown
Mean motion
0.5912 °/min
Orbital period
608.93 mins
BSTAR
0.0017543
Loading maneuver chart data...
Loading SW <> Apogee altitude chart data...
Loading historical data...
Loading historical data...
Loading historical data...
Loading historical data...
Loading historical data...
Loading historical data...
Loading historical data...
Other satellites on launch #73 in the year 2025 (2025-04-10 UTC)

CZ-3B R/B Visibility forecast

Observer location: undefined°, undefined°

Span
Click to sort rows by Start time (UTC) header in descending order
Start Az.
Max El. time (UTC)
Max El. Az.
Max El.
End time (UTC)
End Az.
343 mins2025-07-11 13:14:58.570Z87.922° E2025-07-11 17:18:58.570Z96.291° ESE25.687°2025-07-11 18:57:58.570Z92.775° ESE
194 mins2025-07-11 21:42:58.570Z263.989° W2025-07-11 22:55:58.570Z268.554° W14.82°2025-07-12 00:56:58.570Z277.887° WNW
|